{"data":{"norad_id":40025,"intl_designator":"2014-033R","name":"QB50P1","alt_names":[],"object_type":"PAYLOAD","status":"ACTIVE","operator":null,"country":"BEL","launch_date":"2014-06-19","launch_site_code":"DLS","launch_vehicle":null,"mission":null,"orbit_class":"UNKNOWN","rcs_meters":0.062,"size_class":null,"mass_kg":null,"dimensions":null,"purposes":["comms","tech_demo"],"wikipedia_slug":null,"has_3d_model":false,"image_url":null,"decayed_at":null,"tle_current":{"epoch":"2026-05-24T22:45:19.918080Z","epoch_age_seconds":75699,"freshness":"FRESH","line1":"1 40025U 14033R   26144.94814720  .00007321  00000+0  36516-3 0  9990","line2":"2 40025  98.0976 154.4718 0007249 313.3224  46.7403 15.17843028649509","mean_motion":15.17843028,"eccentricity":0.0007249,"inclination_deg":98.0976,"raan_deg":154.4718,"arg_perigee_deg":313.3224,"mean_anomaly_deg":46.7403,"bstar":0.00036516,"rev_number":64950,"period_min":94.871470464072,"perigee_km":507.36592356214,"apogee_km":517.35576733848,"semimajor_km":6890.4978454503,"source":"CELESTRAK","updated_at":"2026-05-25T13:38:25.521407Z"}}}